CFG3KD EDDF-EDDB

Flight info

Callsign CFG3KD
Flight time 0h 49m
Altitude 31000
Route TOBAK3W/25C TOBAK N858 SWALM T201 TAMEB T278 KLF
Aircraft A320/M-SDE3FGHIRWY/LB1

Departure

Time 2026-05-07 11:43
Airport Frankfurt Main Airport (EDDF)

Arrival

Time 2026-05-07 12:32
Airport Berlin Brandenburg Airport (EDDB)
Time Latitude Longitude Altitude Speed Heading
2026-05-07 11:15 50.04834 8.58835 362 ft 0 kts 340°
2026-05-07 11:33 50.04822 8.58842 361 ft 4 kts 340°
2026-05-07 11:33 50.04796 8.58856 363 ft 4 kts 340°
2026-05-07 11:33 50.04771 8.58870 364 ft 4 kts 340°
2026-05-07 11:34 50.04749 8.58882 361 ft 1 kts 340°
2026-05-07 11:37 50.04752 8.58871 361 ft 1 kts 279°
2026-05-07 11:38 50.04747 8.58845 361 ft 5 kts 253°
2026-05-07 11:38 50.04723 8.58782 367 ft 8 kts 227°
2026-05-07 11:38 50.04684 8.58762 361 ft 0 kts 185°
2026-05-07 11:39 50.04631 8.58754 362 ft 14 kts 187°
2026-05-07 11:40 50.04557 8.58680 365 ft 14 kts 220°
2026-05-07 11:40 50.04482 8.58578 366 ft 11 kts 244°
2026-05-07 11:40 50.04475 8.58546 367 ft 0 kts 251°
2026-05-07 11:42 50.04466 8.58502 368 ft 27 kts 250°
2026-05-07 11:42 50.04305 8.57829 365 ft 101 kts 249°
2026-05-07 11:43 50.03991 8.56512 362 ft 157 kts 250°
2026-05-07 11:43 50.03586 8.54861 829 ft 166 kts 250°
2026-05-07 11:43 50.03163 8.53177 1548 ft 167 kts 252°
2026-05-07 11:43 50.02760 8.51487 2241 ft 170 kts 252°
2026-05-07 11:44 50.02155 8.49766 2604 ft 195 kts 232°
2026-05-07 11:44 50.01040 8.48431 3112 ft 210 kts 206°
2026-05-07 11:44 49.99628 8.47884 3800 ft 215 kts 190°
2026-05-07 11:44 49.98145 8.47560 4503 ft 216 kts 189°
2026-05-07 11:45 49.96644 8.47233 5194 ft 219 kts 189°
2026-05-07 11:45 49.95147 8.46672 5757 ft 228 kts 198°
2026-05-07 11:45 49.93567 8.45942 6130 ft 248 kts 199°
2026-05-07 11:45 49.91983 8.44816 6772 ft 254 kts 221°
2026-05-07 11:46 49.90907 8.42675 7579 ft 253 kts 250°
2026-05-07 11:46 49.90638 8.40022 8459 ft 251 kts 278°
2026-05-07 11:46 49.91217 8.37491 9360 ft 252 kts 305°
2026-05-07 11:46 49.92516 8.35680 10206 ft 256 kts 332°
2026-05-07 11:47 49.94185 8.34540 10749 ft 272 kts 336°
2026-05-07 11:47 49.96012 8.33361 11046 ft 296 kts 336°
2026-05-07 11:47 49.97995 8.32088 11307 ft 320 kts 336°
2026-05-07 11:47 50.00127 8.30714 11545 ft 342 kts 336°
2026-05-07 11:48 50.02407 8.29472 12123 ft 352 kts 346°
2026-05-07 11:48 50.04852 8.28954 12838 ft 358 kts 357°
2026-05-07 11:48 50.07352 8.29251 13569 ft 364 kts
2026-05-07 11:48 50.09807 8.30346 14245 ft 369 kts 17°
2026-05-07 11:49 50.12254 8.31638 14898 ft 373 kts 17°
2026-05-07 11:49 50.14721 8.32938 15565 ft 376 kts 17°
2026-05-07 11:49 50.17207 8.34244 16200 ft 379 kts 17°
2026-05-07 11:49 50.19720 8.35562 16843 ft 383 kts 17°
2026-05-07 11:50 50.22257 8.36891 17486 ft 386 kts 17°
2026-05-07 11:50 50.24819 8.38236 18103 ft 391 kts 18°
2026-05-07 11:50 50.27388 8.39686 18675 ft 395 kts 22°
2026-05-07 11:50 50.29809 8.41754 19219 ft 400 kts 33°
2026-05-07 11:51 50.31997 8.44483 19764 ft 404 kts 40°
2026-05-07 11:51 50.34101 8.47417 20321 ft 407 kts 41°
2026-05-07 11:51 50.36224 8.50371 20873 ft 409 kts 40°
2026-05-07 11:51 50.38332 8.53300 21383 ft 412 kts 41°
2026-05-07 11:52 50.40488 8.56292 21876 ft 415 kts 40°
2026-05-07 11:52 50.42660 8.59309 22374 ft 418 kts 40°
2026-05-07 11:52 50.44847 8.62346 22845 ft 421 kts 40°
2026-05-07 11:52 50.47076 8.65367 23300 ft 424 kts 39°
2026-05-07 11:53 50.49344 8.68363 23725 ft 427 kts 39°
2026-05-07 11:53 50.51641 8.71351 24092 ft 430 kts 38°
2026-05-07 11:53 50.53955 8.74350 24486 ft 432 kts 38°
2026-05-07 11:53 50.56176 8.77548 24835 ft 435 kts 47°
2026-05-07 11:54 50.58059 8.81287 25200 ft 438 kts 56°
2026-05-07 11:54 50.59585 8.85438 25556 ft 440 kts 61°
2026-05-07 11:54 50.61049 8.89684 25914 ft 442 kts 61°
2026-05-07 11:54 50.62522 8.93940 26261 ft 443 kts 61°
2026-05-07 11:55 50.64002 8.98207 26593 ft 445 kts 61°
2026-05-07 11:55 50.64988 9.01047 26816 ft 447 kts 61°
2026-05-07 11:55 50.66482 9.05346 27142 ft 448 kts 61°
2026-05-07 11:55 50.67979 9.09672 27459 ft 450 kts 61°
2026-05-07 11:56 50.69477 9.14015 27756 ft 452 kts 61°
2026-05-07 11:56 50.70945 9.18400 28047 ft 454 kts 65°
2026-05-07 11:56 50.72081 9.23049 28334 ft 455 kts 73°
2026-05-07 11:56 50.72853 9.27905 28612 ft 457 kts 77°
2026-05-07 11:57 50.73585 9.32786 28864 ft 458 kts 76°
2026-05-07 11:57 50.74323 9.37695 29112 ft 459 kts 77°
2026-05-07 11:57 50.75056 9.42570 29572 ft 454 kts 77°
2026-05-07 11:57 50.75783 9.47405 30028 ft 450 kts 77°
2026-05-07 11:58 50.76501 9.52203 30372 ft 448 kts 78°
2026-05-07 11:58 50.77215 9.56998 30623 ft 449 kts 78°
2026-05-07 11:58 50.77926 9.61805 30877 ft 449 kts 78°
2026-05-07 11:58 50.78633 9.66608 31003 ft 450 kts 77°
2026-05-07 11:59 50.79341 9.71421 31032 ft 449 kts 77°
2026-05-07 11:59 50.80763 9.81017 31021 ft 448 kts 78°
2026-05-07 12:00 50.82179 9.90607 31032 ft 448 kts 77°
2026-05-07 12:00 50.83574 10.00199 31029 ft 447 kts 77°
2026-05-07 12:01 50.84444 10.09859 31032 ft 448 kts 90°
2026-05-07 12:01 50.83961 10.19664 31020 ft 447 kts 95°
2026-05-07 12:02 50.83414 10.29471 31018 ft 447 kts 92°
2026-05-07 12:02 50.83673 10.34354 31017 ft 447 kts 77°
2026-05-07 12:02 50.84647 10.39015 31015 ft 446 kts 70°
2026-05-07 12:03 50.86854 10.48178 31024 ft 445 kts 69°
2026-05-07 12:03 50.89068 10.57321 31027 ft 444 kts 69°
2026-05-07 12:04 50.91271 10.66463 31028 ft 444 kts 70°
2026-05-07 12:04 50.93455 10.75609 31032 ft 444 kts 70°
2026-05-07 12:05 50.95632 10.84773 31030 ft 444 kts 70°
2026-05-07 12:05 50.97798 10.93928 31041 ft 443 kts 70°
2026-05-07 12:06 50.99957 11.03087 31045 ft 442 kts 70°
2026-05-07 12:06 51.02088 11.12172 31042 ft 442 kts 70°
2026-05-07 12:07 51.04229 11.21311 31035 ft 441 kts 70°
2026-05-07 12:07 51.06366 11.30458 31024 ft 441 kts 70°
2026-05-07 12:08 51.08487 11.39602 30925 ft 442 kts 70°
2026-05-07 12:08 51.09542 11.44168 30284 ft 437 kts 70°
2026-05-07 12:08 51.10586 11.48700 29284 ft 436 kts 70°
2026-05-07 12:08 51.11630 11.53243 28145 ft 438 kts 69°
2026-05-07 12:09 51.12682 11.57820 26905 ft 443 kts 69°
2026-05-07 12:09 51.13745 11.62449 25672 ft 448 kts 69°
2026-05-07 12:09 51.14809 11.67091 24804 ft 444 kts 69°
2026-05-07 12:09 51.15861 11.71690 23977 ft 441 kts 69°
2026-05-07 12:10 51.16896 11.76244 23571 ft 429 kts 69°
2026-05-07 12:10 51.17885 11.80617 23429 ft 411 kts 69°
2026-05-07 12:10 51.18857 11.84809 23277 ft 395 kts 66°
2026-05-07 12:10 51.20059 11.88607 22922 ft 385 kts 57°
2026-05-07 12:11 51.21606 11.92048 22441 ft 380 kts 49°
2026-05-07 12:11 51.23438 11.95042 21946 ft 376 kts 40°
2026-05-07 12:11 51.25509 11.97561 21414 ft 373 kts 32°
2026-05-07 12:11 51.27772 11.99544 20920 ft 370 kts 24°
2026-05-07 12:12 51.30115 12.01238 20352 ft 370 kts 24°
2026-05-07 12:12 51.32461 12.02943 19790 ft 370 kts 23°
2026-05-07 12:12 51.34802 12.04651 19281 ft 369 kts 24°
2026-05-07 12:12 51.37135 12.06359 18792 ft 368 kts 24°
2026-05-07 12:13 51.39459 12.08065 18295 ft 367 kts 24°
2026-05-07 12:13 51.41774 12.09762 17772 ft 365 kts 24°
2026-05-07 12:13 51.44062 12.11441 17403 ft 358 kts 25°
2026-05-07 12:13 51.46306 12.13093 17037 ft 352 kts 25°
2026-05-07 12:14 51.48522 12.14726 16564 ft 349 kts 25°
2026-05-07 12:14 51.50702 12.16335 16125 ft 347 kts 25°
2026-05-07 12:14 51.52902 12.17959 15673 ft 344 kts 25°
2026-05-07 12:14 51.55074 12.19561 15218 ft 343 kts 25°
2026-05-07 12:15 51.57234 12.21157 14790 ft 340 kts 25°
2026-05-07 12:15 51.59382 12.22747 14360 ft 338 kts 25°
2026-05-07 12:15 51.61514 12.24325 13907 ft 337 kts 25°
2026-05-07 12:15 51.63611 12.25876 13447 ft 335 kts 25°
2026-05-07 12:16 51.65744 12.27455 12983 ft 332 kts 25°
2026-05-07 12:16 51.67792 12.28971 12727 ft 323 kts 26°
2026-05-07 12:16 51.69795 12.30452 12592 ft 311 kts 26°
2026-05-07 12:16 51.71726 12.31885 12462 ft 300 kts 26°
2026-05-07 12:17 51.73592 12.33279 12234 ft 293 kts 26°
2026-05-07 12:17 51.75431 12.34656 11910 ft 290 kts 26°
2026-05-07 12:17 51.77262 12.36027 11657 ft 298 kts 26°
2026-05-07 12:17 51.79195 12.37477 11406 ft 313 kts 26°
2026-05-07 12:18 51.81159 12.38949 11148 ft 310 kts 26°
2026-05-07 12:18 51.83114 12.40411 10902 ft 309 kts 26°
2026-05-07 12:18 51.85063 12.41868 10655 ft 308 kts 26°
2026-05-07 12:18 51.87001 12.43317 10405 ft 306 kts 26°
2026-05-07 12:19 51.88933 12.44764 10158 ft 305 kts 26°
2026-05-07 12:19 51.90855 12.46203 9919 ft 303 kts 26°
2026-05-07 12:19 51.92751 12.47624 9656 ft 296 kts 26°
2026-05-07 12:19 51.94593 12.49010 9403 ft 287 kts 26°
2026-05-07 12:20 51.96381 12.50361 9166 ft 280 kts 26°
2026-05-07 12:20 51.98136 12.51688 8932 ft 277 kts 26°
2026-05-07 12:20 51.99883 12.53005 8690 ft 277 kts 26°
2026-05-07 12:20 52.01624 12.54316 8464 ft 275 kts 26°
2026-05-07 12:21 52.03356 12.55621 8231 ft 274 kts 26°
2026-05-07 12:21 52.05081 12.56924 7996 ft 273 kts 26°
2026-05-07 12:21 52.06803 12.58231 7772 ft 272 kts 26°
2026-05-07 12:21 52.08515 12.59534 7546 ft 271 kts 26°
2026-05-07 12:22 52.10222 12.60831 7313 ft 271 kts 26°
2026-05-07 12:22 52.11936 12.62131 7089 ft 271 kts 26°
2026-05-07 12:22 52.13615 12.63501 6863 ft 269 kts 36°
2026-05-07 12:22 52.14855 12.65653 6646 ft 265 kts 62°
2026-05-07 12:23 52.15592 12.68452 6429 ft 266 kts 69°
2026-05-07 12:23 52.16263 12.71206 6193 ft 264 kts 69°
2026-05-07 12:23 52.16939 12.73976 5960 ft 263 kts 68°
2026-05-07 12:23 52.17617 12.76739 5729 ft 263 kts 68°
2026-05-07 12:24 52.18293 12.79493 5491 ft 261 kts 68°
2026-05-07 12:24 52.18964 12.82227 5263 ft 260 kts 68°
2026-05-07 12:24 52.19632 12.84960 5035 ft 259 kts 68°
2026-05-07 12:24 52.20299 12.87690 4798 ft 258 kts 68°
2026-05-07 12:25 52.20956 12.90400 4569 ft 256 kts 69°
2026-05-07 12:25 52.21590 12.93105 4332 ft 256 kts 69°
2026-05-07 12:25 52.22244 12.95822 4099 ft 256 kts 68°
2026-05-07 12:25 52.22897 12.98499 3865 ft 252 kts 68°
2026-05-07 12:26 52.23544 13.01154 3638 ft 251 kts 68°
2026-05-07 12:26 52.24186 13.03793 3546 ft 250 kts 67°
2026-05-07 12:26 52.24825 13.06425 3543 ft 247 kts 68°
2026-05-07 12:26 52.25435 13.08943 3535 ft 230 kts 68°
2026-05-07 12:27 52.26007 13.11307 3534 ft 221 kts 68°
2026-05-07 12:27 52.26570 13.13632 3543 ft 220 kts 68°
2026-05-07 12:27 52.27130 13.15946 3526 ft 219 kts 67°
2026-05-07 12:27 52.27683 13.18238 3269 ft 215 kts 67°
2026-05-07 12:28 52.28229 13.20498 3023 ft 211 kts 67°
2026-05-07 12:28 52.28744 13.22636 2992 ft 199 kts 67°
2026-05-07 12:28 52.29231 13.24662 3011 ft 184 kts 67°
2026-05-07 12:28 52.29689 13.26565 2847 ft 177 kts 67°
2026-05-07 12:29 52.30134 13.28416 2617 ft 174 kts 67°
2026-05-07 12:29 52.30571 13.30236 2399 ft 172 kts 67°
2026-05-07 12:29 52.31008 13.32056 2158 ft 171 kts 67°
2026-05-07 12:29 52.31417 13.33764 1949 ft 151 kts 67°
2026-05-07 12:30 52.31782 13.35288 1746 ft 137 kts 66°
2026-05-07 12:30 52.32118 13.36700 1513 ft 131 kts 67°
2026-05-07 12:30 52.32439 13.38083 1251 ft 127 kts 66°
2026-05-07 12:30 52.32763 13.39427 1032 ft 127 kts 66°
2026-05-07 12:31 52.33107 13.40760 812 ft 126 kts 65°
2026-05-07 12:31 52.33418 13.42112 689 ft 128 kts 66°
2026-05-07 12:31 52.33740 13.43471 495 ft 128 kts 67°
2026-05-07 12:31 52.34061 13.44813 365 ft 126 kts 64°
2026-05-07 12:32 52.34370 13.46135 249 ft 126 kts 66°
2026-05-07 12:32 52.34687 13.47445 155 ft 117 kts 72°
2026-05-07 12:32 52.34932 13.48463 155 ft 72 kts 68°
2026-05-07 12:32 52.35052 13.48967 153 ft 28 kts 69°
2026-05-07 12:33 52.35254 13.49380 157 ft 21 kts 38°
2026-05-07 12:33 52.35368 13.49537 158 ft 20 kts 39°
2026-05-07 12:33 52.35462 13.49702 158 ft 20 kts 68°
2026-05-07 12:34 52.35507 13.49905 158 ft 19 kts 69°
2026-05-07 12:34 52.35559 13.50121 158 ft 21 kts 69°
2026-05-07 12:34 52.35615 13.50355 158 ft 23 kts 68°
2026-05-07 12:34 52.35673 13.50606 158 ft 24 kts 69°
2026-05-07 12:35 52.35736 13.50823 158 ft 18 kts 37°
2026-05-07 12:35 52.35856 13.50773 158 ft 19 kts 340°
2026-05-07 12:35 52.35943 13.50716 159 ft 0 kts 339°
2026-05-07 12:35 52.35946 13.50715 159 ft 2 kts 341°
2026-05-07 12:36 52.35983 13.50695 159 ft 8 kts 341°
2026-05-07 12:36 52.36039 13.50663 159 ft 10 kts 340°
2026-05-07 12:36 52.36069 13.50703 159 ft 6 kts 66°
2026-05-07 12:36 52.36085 13.50764 159 ft 6 kts 65°
2026-05-07 12:37 52.36094 13.50794 159 ft 0 kts 63°
2026-05-07 12:39 52.36097 13.50803 159 ft 0 kts 63°
2026-05-07 12:39 52.36100 13.50810 159 ft 0 kts 63°
2026-05-07 12:39 52.36104 13.50817 159 ft 0 kts 63°